EHI
0 1 3 6 6 3 1 0 0 1 1 0 0 1 2 3 2 3 7 19 32 31 26 24 23 16 8 4 2 1 1 0 0 0 0 1 2 2 1 0 1 1 1 0 0 0 0 0 0
1 2 4 5 3 1 0 0 0 1 1 0 0 2 3 3 3 4 9 20 29 29 26 26 25 18 9 4 3 2 2 1 0 0 0 0 1 1 1 0 0 0 0 0 0 0 0 0 0
1 3 4 3 1 0 0 0 0 1 1 0 2 4 4 5 5 6 11 19 27 29 28 30 30 23 11 5 4 5 4 2 0 0 0 0 0 0 0 1 1 0 0 1 0 0 0 0 0
2 3 3 1 0 0 0 0 0 0 0 1 3 6 7 8 7 7 10 16 23 28 29 31 34 29 18 9 6 6 6 3 1 1 1 0 0 0 0 1 1 1 1 1 0 0 0 0 0
2 2 2 0 0 0 0 0 0 0 0 2 6 9 11 11 9 7 10 14 20 27 29 31 35 34 27 19 12 8 6 5 3 2 2 1 1 1 1 1 1 2 2 2 1 1 1 0 0
1 1 0 0 0 0 0 0 0 0 1 3 7 11 13 13 10 7 10 14 18 27 33 32 33 34 32 27 21 14 9 6 4 4 4 4 3 2 2 2 1 2 2 3 3 2 1 0 0
0 0 0 0 0 0 0 0 0 0 1 2 5 10 15 15 11 8 11 14 19 28 33 30 29 30 30 28 25 19 11 7 6 5 4 4 4 3 3 4 3 3 2 2 3 3 1 0 0
0 0 0 0 0 0 0 0 0 0 1 3 5 10 18 19 14 11 11 14 19 26 27 24 24 24 23 22 22 19 12 8 8 7 5 3 3 4 5 5 6 6 4 3 2 2 1 1 1
0 0 0 0 0 0 0 0 0 1 3 7 11 16 22 23 19 15 13 15 19 22 21 21 22 20 17 18 19 17 12 9 8 8 6 3 3 4 6 7 10 12 9 5 3 3 3 2 2
0 0 0 0 0 0 0 0 1 1 3 10 17 21 24 24 21 17 16 17 19 20 19 22 24 22 19 21 22 18 14 12 11 11 9 6 4 5 8 11 15 15 11 7 4 3 2 2 1
0 0 0 0 0 0 0 0 1 1 3 11 19 22 23 21 17 15 15 17 19 21 22 25 28 28 27 28 26 19 17 18 17 16 15 11 7 6 10 15 16 14 9 5 4 2 2 1 1
0 0 0 0 0 0 0 0 0 1 3 11 19 22 20 17 14 13 15 18 20 21 25 30 34 35 37 37 32 24 22 22 21 21 19 14 11 9 11 16 15 10 7 5 3 3 3 2 2
0 0 0 0 0 0 0 0 0 1 5 12 20 21 18 15 14 15 18 21 24 26 29 34 40 44 45 45 39 29 25 23 23 24 20 15 13 12 14 16 14 10 8 6 4 3 4 4 3
0 0 0 0 0 0 0 0 1 2 7 14 20 21 18 16 16 20 24 27 31 34 37 39 43 47 48 46 41 32 27 26 26 26 22 17 15 17 18 18 15 11 9 8 6 5 6 5 4
0 0 0 0 0 0 0 0 1 4 9 14 19 19 18 17 18 24 30 34 38 43 46 44 42 45 46 43 37 31 28 27 28 26 23 19 19 21 21 20 17 13 11 10 9 8 8 5 3
0 0 0 0 0 0 0 1 3 5 9 14 18 19 20 20 22 26 32 37 42 49 53 47 43 43 43 40 36 31 28 29 29 26 23 20 20 21 22 21 19 15 13 13 11 10 10 7 3
0 0 0 0 0 0 0 1 4 5 7 12 16 19 22 26 29 32 35 39 45 51 53 49 46 44 40 38 37 34 31 31 33 30 26 22 20 19 20 22 20 16 14 12 10 11 12 9 5
0 0 0 0 0 0 0 2 4 4 5 9 14 19 23 29 35 40 43 42 45 50 52 50 49 46 41 39 39 37 32 31 34 34 30 25 21 18 18 20 18 14 12 11 11 11 12 10 7
0 0 0 0 0 0 1 3 5 5 5 7 13 19 24 31 39 46 47 45 46 50 52 50 49 47 44 42 41 38 33 30 30 33 32 27 21 17 16 15 15 14 14 12 12 13 12 9 7
0 0 0 0 0 0 1 4 7 7 5 7 12 20 28 36 42 46 46 43 46 51 51 49 47 46 44 44 42 38 34 30 28 31 32 27 21 16 14 13 13 15 16 15 14 14 11 8 6
0 0 0 0 0 0 1 4 7 9 8 9 15 23 31 39 44 45 42 41 45 49 49 46 45 43 42 43 41 38 36 32 30 32 33 29 23 18 15 14 13 14 15 15 15 14 12 10 8
0 0 0 0 0 0 0 3 7 10 11 14 20 27 34 41 45 44 40 39 41 44 44 45 44 43 42 43 40 37 36 35 34 35 35 32 27 22 20 19 16 14 14 15 16 16 15 12 10
0 0 0 0 0 0 0 2 7 11 14 18 23 29 36 42 45 44 41 38 36 36 38 42 44 44 44 41 37 34 34 36 37 37 37 34 30 27 25 22 20 17 15 16 17 17 17 14 11
0 0 0 0 0 0 0 2 6 9 13 18 22 28 35 39 39 39 38 35 30 29 32 37 42 44 43 41 36 33 32 36 38 38 36 32 29 28 27 24 23 21 18 18 19 19 18 16 14
0 0 0 0 0 0 0 2 6 9 12 17 22 26 31 33 33 33 33 31 28 26 28 33 38 41 42 40 38 34 32 33 34 33 30 27 26 27 27 24 25 25 21 20 21 19 16 14 15
0 0 0 0 0 0 1 3 8 11 13 17 20 24 28 29 28 28 31 31 27 25 27 32 36 39 40 39 37 35 33 32 31 28 25 24 25 27 27 25 24 24 22 21 22 18 13 12 14
0 0 0 0 0 0 1 4 10 11 11 13 17 21 25 26 24 26 30 31 29 27 29 33 36 37 36 34 34 33 34 34 31 26 23 24 24 26 27 24 21 20 20 20 21 18 13 12 13
0 0 0 0 0 0 1 4 9 12 11 12 14 17 20 23 23 24 27 29 28 28 30 33 33 31 28 29 30 32 34 34 31 26 22 23 24 25 25 22 19 17 17 18 18 16 14 12 12
0 0 0 0 0 0 0 2 6 12 14 13 12 13 16 21 23 24 25 26 26 26 28 29 28 24 23 25 27 30 33 32 30 26 23 22 24 24 22 20 19 17 15 15 16 14 12 11 9
0 0 0 0 0 0 0 1 4 9 12 11 9 10 14 18 22 24 25 25 24 23 25 27 24 21 20 22 25 30 32 32 30 27 24 23 23 22 19 18 19 17 14 14 15 14 11 10 9
Wind_Speed
8 11 10 8 6 5 3 3 9 11 11 11 11 10 14 14 11 10 9 13 16 16 14 13 11 10 10 9 9 9 8 9 8 8 8 8 9 8 8 7 6 6 7 8 9 9 10 10 10
9 12 10 7 6 3 1 6 12 12 9 9 10 11 14 14 13 12 11 13 16 16 13 12 12 11 10 9 9 8 8 8 8 8 8 8 8 8 9 9 9 8 8 8 9 10 9 9 9
12 15 9 7 5 3 2 7 10 11 7 7 10 11 12 11 12 11 11 14 15 15 14 13 12 11 10 9 9 8 8 8 8 8 8 8 8 9 9 10 10 10 9 9 10 9 9 8 8
9 9 7 6 4 2 3 7 8 9 7 6 8 10 12 10 10 13 13 14 14 15 15 14 12 11 10 10 9 9 8 8 7 7 8 8 8 8 8 9 10 10 10 10 10 9 8 7 7
9 8 8 7 5 1 5 7 5 7 6 7 10 12 11 11 13 14 11 12 13 15 15 14 13 11 10 10 9 8 7 7 7 7 7 7 7 7 8 8 9 9 9 9 9 8 8 7 6
8 8 7 7 4 0 5 5 4 8 6 6 10 12 9 10 10 10 11 11 12 14 15 13 13 12 11 10 9 8 7 6 6 6 6 6 6 6 7 8 8 8 8 8 8 8 7 6 5
10 9 8 7 4 1 3 4 4 5 5 5 7 10 10 11 9 9 10 11 12 13 14 12 12 11 11 10 10 9 7 6 6 5 5 5 5 6 7 7 7 7 7 8 7 7 6 5 4
11 9 11 8 6 2 4 3 4 4 6 5 5 7 11 12 9 8 8 9 10 11 12 11 11 11 10 9 10 9 8 7 6 5 5 5 5 5 6 6 6 6 6 6 6 6 5 5 4
13 9 10 6 4 1 5 3 4 5 5 5 7 10 14 15 11 9 7 8 9 8 9 8 9 9 8 8 9 9 9 7 6 5 5 4 3 4 5 5 7 7 6 6 6 5 5 4 4
9 8 8 4 3 3 2 2 3 3 4 7 9 12 15 14 11 10 7 7 8 8 8 7 7 6 6 5 6 5 5 6 4 3 4 3 1 2 4 7 8 7 6 6 6 5 5 4 2
10 9 7 5 2 2 1 0 1 2 2 5 9 11 13 13 11 11 9 8 8 8 6 7 7 5 5 4 4 2 2 3 3 3 3 2 1 1 2 3 4 4 5 3 5 5 3 2 1
11 8 7 6 3 3 2 2 1 1 1 5 9 10 11 11 9 8 9 9 8 8 7 6 6 5 4 3 3 2 2 2 2 3 2 2 1 1 1 2 2 2 1 1 2 2 2 1 2
10 9 7 6 5 5 4 5 3 1 2 5 8 8 8 9 10 8 8 8 8 7 7 6 6 5 4 3 1 2 1 1 2 2 2 1 1 1 1 1 1 1 2 2 1 2 1 1 1
9 8 7 7 7 6 7 6 5 4 5 6 8 8 8 8 10 8 8 7 7 7 6 5 6 6 4 3 1 1 1 1 2 2 2 1 1 2 1 1 1 1 1 1 1 2 1 1 1
10 10 8 9 9 8 7 8 7 6 5 6 8 7 8 7 8 8 7 6 6 7 6 4 5 6 4 2 1 1 1 2 2 2 2 1 1 2 2 1 2 1 1 2 1 1 1 2 2
11 11 12 12 11 8 9 9 7 5 6 7 7 8 8 7 7 7 8 7 6 6 6 4 4 6 4 2 1 0 0 2 2 2 2 1 1 1 1 1 1 1 1 2 1 1 1 1 1
13 14 13 11 11 10 10 7 5 5 7 8 8 8 8 8 8 7 8 7 6 6 6 5 4 5 4 3 1 0 1 1 1 2 2 2 1 1 1 1 1 1 1 2 1 2 1 1 1
12 13 12 10 9 10 9 8 6 7 7 7 8 8 8 8 8 7 7 7 7 7 6 5 3 4 3 2 1 1 1 1 1 2 2 2 2 1 1 2 2 2 1 1 1 1 1 1 1
14 14 11 8 5 7 9 8 8 8 8 8 9 9 8 8 9 8 7 7 7 6 6 5 4 3 2 2 2 1 1 1 1 2 3 2 2 2 1 1 2 1 2 2 2 2 1 1 1
14 15 12 8 6 7 8 9 8 9 9 7 7 8 8 8 8 8 8 6 6 6 5 5 4 3 2 2 1 1 1 1 2 2 2 2 2 2 3 2 2 2 2 2 2 2 1 1 2
13 12 11 10 9 8 9 11 10 9 8 8 7 7 8 9 9 8 8 7 7 6 5 4 4 3 2 2 1 1 1 1 1 2 2 2 2 2 1 2 2 2 2 2 2 2 2 1 1
11 10 10 11 10 9 9 9 9 9 9 8 7 7 7 7 9 8 7 6 5 5 5 5 4 4 2 1 1 2 2 1 1 1 2 3 2 2 2 2 2 1 1 2 2 2 1 1 1
11 9 9 11 12 12 10 10 7 6 8 8 7 6 6 6 7 8 7 6 5 5 4 5 5 4 3 1 1 1 1 1 1 1 2 3 2 2 2 2 2 1 1 2 2 1 1 1 1
9 10 11 11 10 11 10 10 6 4 6 7 6 6 6 7 7 7 7 6 5 4 4 3 4 4 3 2 1 1 1 0 1 1 2 2 2 2 2 2 2 2 2 2 1 1 2 1 1
10 10 8 9 9 10 7 7 4 0 2 5 7 7 7 7 7 7 6 6 5 4 4 4 2 3 3 3 2 1 1 1 0 1 1 1 2 2 2 3 3 2 2 2 1 1 1 1 0
10 12 9 9 9 7 5 5 2 5 6 7 8 8 7 7 6 6 6 5 5 4 3 4 3 2 2 2 2 1 1 1 0 1 1 1 1 1 2 3 3 3 2 2 2 2 1 1 1
10 11 12 12 13 11 5 4 5 6 7 8 7 8 7 6 6 6 6 5 4 4 3 3 3 2 1 1 1 2 1 1 1 0 2 1 1 2 2 3 3 3 2 2 2 1 1 1 1
11 10 7 7 8 9 7 2 2 5 5 7 6 6 6 6 5 6 6 5 4 3 4 4 3 2 1 0 1 1 1 1 1 1 1 1 0 1 2 3 4 4 3 3 2 2 2 2 1
9 10 8 7 8 7 7 2 3 4 4 4 4 5 5 5 5 6 5 4 4 3 3 3 2 2 1 1 0 0 1 1 1 1 1 1 1 1 2 3 3 3 3 3 3 3 3 3 2
10 9 8 7 8 8 7 2 4 4 5 3 3 4 3 4 4 5 5 4 3 3 3 2 2 1 1 1 0 1 1 1 1 1 1 1 2 2 2 3 3 4 4 3 3 3 3 3 3
Wind_Direction
246 242 234 249 248 255 277 82 76 69 70 63 54 59 63 56 61 91 110 104 105 110 115 113 107 102 98 94 90 87 86 86 85 80 78 75 71 69 67 63 72 91 100 102 101 102 103 103 104
262 255 244 247 254 265 321 80 78 75 76 84 76 73 77 75 86 103 107 105 107 111 114 112 111 105 101 97 94 92 91 88 87 84 81 79 74 71 66 64 69 84 96 104 107 108 107 106 105
264 262 263 249 248 246 60 80 93 91 84 86 81 67 66 80 91 102 113 114 108 111 112 113 114 110 107 104 101 98 97 94 90 87 83 78 75 71 67 68 73 79 91 101 108 111 110 109 108
263 245 236 254 261 219 113 94 100 107 99 91 94 85 77 74 96 111 123 118 119 120 118 119 119 116 114 111 108 105 102 100 95 90 85 80 76 74 73 74 75 77 90 99 105 106 107 109 112
243 258 251 256 257 219 94 94 104 110 104 97 90 89 87 83 98 113 120 125 126 122 121 126 126 123 121 117 115 111 108 107 103 97 90 84 81 80 79 79 82 85 92 97 103 106 104 104 111
252 248 258 260 262 69 100 111 115 101 103 104 108 106 103 109 111 126 129 130 123 121 123 129 132 131 128 124 121 118 117 116 113 108 102 95 89 90 90 88 88 90 95 103 108 112 112 115 113
259 271 264 269 270 240 91 95 103 107 112 93 102 111 123 125 127 135 130 127 120 118 124 136 142 140 137 134 132 133 131 129 127 123 120 114 107 106 106 104 102 98 98 101 108 117 124 123 124
261 278 275 251 244 201 111 106 114 109 103 101 110 120 134 131 141 135 127 121 119 121 126 140 143 145 151 148 146 147 146 144 145 144 147 144 130 126 126 123 119 117 113 111 118 123 126 137 142
256 262 272 267 256 167 118 132 111 106 108 97 75 98 125 135 143 135 133 129 124 123 129 141 138 149 150 147 149 160 163 162 164 164 173 175 176 158 153 136 134 133 133 133 139 147 149 156 169
242 253 269 297 338 3 84 132 134 140 142 117 103 110 129 139 145 142 146 148 141 133 136 134 132 136 136 134 142 165 164 160 177 160 171 191 190 147 134 140 146 151 151 153 164 171 175 191 182
244 251 278 294 319 327 358 339 148 165 173 131 129 132 140 145 152 155 158 157 147 142 135 126 126 122 122 122 141 151 145 152 165 150 158 164 167 139 128 140 151 169 169 181 172 185 195 184 163
252 253 265 283 316 287 278 289 287 121 94 135 134 142 150 157 159 164 160 155 146 135 126 125 124 119 108 106 125 140 135 136 139 146 151 160 156 156 144 137 149 163 159 165 163 163 156 146 115
250 254 259 267 266 267 259 258 259 178 134 120 134 143 159 163 160 169 152 141 139 136 136 128 112 103 95 79 84 109 119 130 120 110 145 158 147 149 148 129 134 146 136 145 129 119 104 108 110
267 260 254 256 254 249 248 245 241 203 163 154 152 162 167 170 165 163 145 144 139 133 130 124 127 111 106 108 104 119 146 131 112 107 114 145 144 134 132 147 157 123 118 114 130 134 147 123 101
265 268 261 256 246 240 247 254 241 213 182 174 170 169 168 173 165 155 142 137 137 135 129 127 134 119 115 119 137 134 154 125 115 124 117 130 137 136 153 153 147 150 139 134 121 123 124 145 140
251 247 247 243 235 224 233 247 240 202 194 192 183 172 168 171 163 150 143 135 134 136 129 136 135 125 124 117 102 103 119 111 123 131 128 139 139 139 164 141 145 158 140 125 142 153 128 113 114
245 244 244 236 219 215 219 237 228 205 209 190 189 176 172 172 160 145 143 140 138 124 126 129 122 128 134 140 147 135 82 82 115 123 128 137 145 143 183 137 133 173 141 145 179 127 129 134 149
254 253 245 242 219 219 220 221 200 215 216 196 193 178 176 171 155 146 143 141 135 126 126 131 130 123 144 145 157 162 136 137 118 117 117 131 156 169 193 148 158 186 147 144 116 124 139 156 179
268 278 276 266 250 236 234 227 202 215 215 206 193 180 182 175 154 148 145 142 135 127 129 136 139 134 146 146 178 183 180 182 163 141 126 140 164 181 204 170 166 184 152 161 148 136 171 178 162
265 271 277 273 253 250 255 253 225 211 211 216 205 183 181 170 154 148 146 148 140 137 138 140 136 140 149 141 170 194 181 199 161 134 140 147 163 186 191 179 181 174 150 155 150 159 183 186 167
257 264 275 277 270 250 247 251 242 221 206 203 202 187 179 171 158 155 157 155 146 140 139 137 134 139 148 154 162 197 165 188 159 149 147 147 155 169 204 160 176 182 169 173 175 179 191 208 197
264 265 264 267 266 259 245 257 231 219 202 195 189 180 178 166 153 150 149 149 144 145 140 135 137 139 147 170 183 200 172 188 203 162 150 152 162 168 174 160 161 181 166 164 193 177 200 204 224
262 268 265 265 264 265 258 260 245 203 204 188 181 173 160 146 144 141 137 139 140 140 133 139 138 139 151 175 173 209 198 196 166 152 153 155 159 167 158 147 157 172 174 169 182 147 193 205 226
269 270 264 257 258 257 257 261 263 237 202 180 160 143 128 129 127 126 128 130 129 130 127 127 141 147 159 169 184 199 245 260 141 148 169 165 159 168 160 154 168 173 191 172 166 165 192 213 238
251 255 255 249 242 247 246 249 240 161 107 148 150 136 131 128 127 128 131 136 134 136 138 132 132 156 164 169 171 184 227 230 196 216 199 180 178 176 168 171 174 179 194 176 159 158 193 205 178
245 252 256 266 272 260 236 240 170 122 107 110 123 123 125 125 127 131 127 125 130 138 136 134 147 147 159 172 172 179 196 213 221 302 273 206 200 190 165 168 171 179 193 182 169 178 198 186 207
256 253 265 267 274 278 250 196 145 134 122 116 123 129 129 129 132 133 125 127 127 130 130 119 113 119 128 177 200 203 197 182 189 232 286 264 198 178 171 173 168 181 194 184 171 183 192 181 214
260 274 279 276 282 281 280 255 165 137 140 133 139 141 144 146 148 139 135 138 132 129 128 126 125 129 130 173 246 210 193 205 193 197 177 289 283 175 169 180 178 186 191 190 187 192 177 175 208
253 255 266 276 273 281 284 278 99 111 108 120 141 142 149 154 146 136 129 131 126 133 126 124 126 136 153 163 237 279 205 216 223 231 204 205 224 210 189 184 184 194 194 190 187 204 191 190 209
271 267 261 269 275 277 280 293 82 104 119 122 108 120 127 127 135 134 129 127 126 121 115 116 105 135 152 153 162 241 217 212 233 244 241 217 214 218 214 190 186 199 198 195 198 208 199 196 201